Location: Newark
(40.3500°N, 15.2333°E)
Time: 20:27:20
(UTC+00:00)

Altair - Pass Details

Date: 22 January 2020
Orbit: 1502 x 1682 km, 47.2° (Epoch: 19 February)

Event Time Altitude Azimuth Distance (km) Brightness Sun altitude
Rises 13:13:46 0° 294° (WNW) 4,938 10.3 23.4°
Reaches altitude 10° 13:16:58 10° 296° (WNW) 3,943 9.8 23.1°
Maximum altitude 13:27:10 79° 24° (NNE) 1,684 8.0 22.0°
Drops below altitude 10° 13:37:02 10° 111° (ESE) 3,830 9.5 20.9°
Sets 13:40:06 0° 113° (ESE) 4,791 9.9 20.6°
